Weather History for Rochester, NH

Change the Weather History Date:

Sunday, September 29, 2013

  Actual Average (KSFM) Record (KSFM)
Temperature  
Mean Temperature 52 °F -  
Max Temperature 66 °F 63 °F 80 °F (2010)
Min Temperature 39 °F 41 °F 24 °F (2000)
Degree Days  
Heating Degree Days 12    
Growing Degree Days 2 (Base 50)    
Moisture  
Dew Point 45 °F    
Average Humidity 85    
Maximum Humidity 100    
Minimum Humidity 48    
Precipitation  
Precipitation 0.00 in - - ()
Sea Level Pressure  
Sea Level Pressure 30.20 in    
Wind  
Wind Speed 2 mph (West)    
Max Wind Speed 7 mph    
Max Gust Speed -    
Visibility 7 miles    
Events Fog    
Averages and records for this station are not official NWS values.
T = Trace of Precipitation, MM = Missing Value Source: NWS Daily Summary

Daily Weather History Graph

Daily Weather History Graph

Search for Another Location

Airport:

Trip Planner

Search our weather history database for the weather conditions in past years. The results will help you decide how hot, cold, wet, or windy it might be!

Date:

Astronomy

Sep. 29, 2013 Rise Set
Actual Time 6:39 AM EDT 6:28 PM EDT
Civil Twilight 6:10 AM EDT 6:56 PM EDT
Nautical Twilight 5:37 AM EDT 7:29 PM EDT
Astronomical Twilight 5:03 AM EDT 8:02 PM EDT
Moon 1:09 AM EDT (9/29) 3:29 PM EDT (9/29)
Length of Visible Light 12h 45m
Length of Day
11h 48m
Waning Crescent, 27% of the Moon is Illuminated
Sep 29
Waning Crescent
Oct 4
New
Oct 11
First Quarter
Oct 18
Full
Oct 26
Last Quarter

Hourly Weather History & Observations

Time (EDT) Temp. Windchill Dew Point Humidity Pressure Visibility Wind Dir Wind Speed Gust Speed Precip Events Conditions
12:51 AM 46.9 °F - 45.0 °F 93% 30.26 in 10.0 mi NW 3.5 mph - N/A   Clear
1:51 AM 46.9 °F - 45.0 °F 93% 30.25 in 10.0 mi WNW 3.5 mph - N/A   Clear
2:51 AM 46.9 °F - 45.0 °F 93% 30.23 in 10.0 mi NW 3.5 mph - N/A   Clear
3:51 AM 45.0 °F 41.8 °F 43.0 °F 93% 30.23 in 10.0 mi NW 5.8 mph - N/A   Clear
4:51 AM 43.0 °F 39.5 °F 41.0 °F 93% 30.22 in 10.0 mi NW 5.8 mph - N/A   Clear
5:51 AM 44.1 °F 42.5 °F 43.0 °F 96% 30.22 in 10.0 mi NW 3.5 mph - N/A   Clear
6:51 AM 39.9 °F - 37.0 °F 89% 30.23 in 10.0 mi Calm Calm - N/A   Clear
7:17 AM 41.0 °F - 39.2 °F 93% 30.23 in 2.0 mi Calm Calm - N/A   Partly Cloudy
7:20 AM 42.8 °F - 39.2 °F 87% 30.23 in 1.0 mi Calm Calm - N/A   Mist
7:33 AM 42.8 °F - 41.0 °F 93% 30.23 in 3.0 mi Calm Calm - N/A   Mostly Cloudy
7:47 AM 44.6 °F - 42.8 °F 93% 30.23 in 1.2 mi Calm Calm - N/A   Overcast
7:51 AM 46.0 °F - 45.0 °F 96% 30.23 in 0.2 mi Calm Calm - N/A Fog Fog
8:05 AM 46.4 °F - 46.4 °F 100% 30.23 in 0.2 mi Calm Calm - N/A Fog Fog
8:22 AM 46.4 °F - 46.4 °F 100% 30.23 in 0.2 mi Calm Calm - N/A Fog Fog
8:39 AM 46.4 °F - 46.4 °F 100% 30.23 in 1.0 mi Calm Calm - N/A   Overcast
8:48 AM 48.2 °F - 46.4 °F 93% 30.23 in 2.5 mi Calm Calm - N/A   Overcast
8:51 AM 48.9 °F - 46.9 °F 93% 30.23 in 2.5 mi Calm Calm - N/A   Mostly Cloudy
8:58 AM 48.2 °F - 46.4 °F 93% 30.23 in 7.0 mi Calm Calm - N/A   Mostly Cloudy
9:07 AM 48.2 °F - 48.2 °F 100% 30.23 in 1.8 mi Calm Calm - N/A   Mostly Cloudy
9:13 AM 50.0 °F - 48.2 °F 94% 30.23 in 3.0 mi Calm Calm - N/A   Mostly Cloudy
9:30 AM 51.8 °F - 50.0 °F 94% 30.23 in 10.0 mi Calm Calm - N/A   Scattered Clouds
9:51 AM 55.0 °F - 51.1 °F 86% 30.23 in 10.0 mi Calm Calm - N/A   Clear
10:51 AM 60.1 °F - 52.0 °F 75% 30.22 in 10.0 mi Variable 3.5 mph - N/A   Clear
11:51 AM 62.1 °F - 46.9 °F 58% 30.21 in 10.0 mi SSE 6.9 mph - N/A   Clear
12:51 PM 64.9 °F - 46.0 °F 50% 30.19 in 10.0 mi ESE 4.6 mph - N/A   Clear
1:51 PM 64.9 °F - 45.0 °F 48% 30.18 in 10.0 mi South 5.8 mph - N/A   Clear
2:51 PM 66.0 °F - 46.9 °F 50% 30.16 in 10.0 mi SSE 5.8 mph - N/A   Clear
3:51 PM 64.9 °F - 46.9 °F 52% 30.14 in 10.0 mi SSE 4.6 mph - N/A   Clear
4:51 PM 63.0 °F - 46.0 °F 54% 30.13 in 10.0 mi SSE 4.6 mph - N/A   Clear
5:51 PM 59.0 °F - 45.0 °F 60% 30.14 in 10.0 mi SE 4.6 mph - N/A   Clear
6:51 PM 54.0 °F - 46.9 °F 77% 30.14 in 10.0 mi Calm Calm - N/A   Clear
7:51 PM 52.0 °F - 48.0 °F 86% 30.14 in 10.0 mi Calm Calm - N/A   Clear
8:51 PM 48.9 °F - 46.0 °F 90% 30.14 in 10.0 mi Calm Calm - N/A   Clear
9:51 PM 48.0 °F - 46.0 °F 93% 30.14 in 10.0 mi Calm Calm - N/A   Clear
10:51 PM 46.0 °F 44.8 °F 44.1 °F 93% 30.13 in 10.0 mi NW 3.5 mph - N/A   Partly Cloudy
11:18 PM 44.6 °F 42.2 °F 44.6 °F 100% 30.13 in 10.0 mi NW 4.6 mph - N/A   Scattered Clouds
11:51 PM 45.0 °F 41.8 °F 43.0 °F 93% 30.12 in 10.0 mi NW 5.8 mph - N/A   Clear